Puyallup, WA
on Wednesday, January 23, 2013

Wednesday
Previous Day Next Day
Daily Summary
 ActualAverage (KSEA)Record (KSEA)
Temperature
Mean Temperature °F 43°F  
Max Temperature 41°F 48°F 56°F (2001)
Min Temperature 33°F 37°F 16°F (1949)
Degree Days
Heating Degree Days 28 22  
Month to date heating degree days 534  
Since 1 July heating degree days 2472  
Cooling Degree Days 0 0  
Month to date cooling degree days 0  
Year to date cooling degree days 0  
Moisture
Dew Point 38°F   
Average Humidity 94    
Maximum Humidity 100    
Minimum Humidity 75    
Precipitation
Precipitation 0.08 in 0.17 in 1.36 in (1959)
Month to date precipitation 4.29  
Year to date precipitation 4.29  
Snow
Snow 0.00 in in 3.00 in (1952)
Month to date snowfall  
Since 1 July snowfall  
Snow Depth in   
Wind
Wind Speed 1 mph   
Max Wind Speed 9 mph   
Max Gust Speed mph   
Visibility 9 miles   
Events Rain   

Key: T is trace of precipitation, MM is missing value
Source: NWS Daily Summary
Time(PST)TemperatureDew PointHumidity Pressure Visibility Wind DirectionWind SpeedGust SpeedPrecipitationEvents Conditions
12:15 AM 33.8°F 33.8°F 100% 29.94 in 2.5 miles Calm Calm - N/A   Partly Cloudy
12:35 AM 35.6°F 35.6°F 100% 29.94 in 7.0 miles Calm Calm - N/A   Clear
12:55 AM 35.6°F 35.6°F 100% 29.92 in 10.0 miles Calm Calm - N/A   Clear
1:15 AM 35.6°F 35.6°F 100% 29.92 in 10.0 miles Calm Calm - N/A   Clear
1:35 AM 35.6°F 35.6°F 100% 29.94 in 10.0 miles Calm Calm - N/A   Clear
1:55 AM 35.6°F 35.6°F 100% 29.91 in 10.0 miles Calm Calm - N/A   Clear
2:15 AM 37.4°F 33.8°F 87% 29.93 in 10.0 miles Calm Calm - N/A   Clear
2:35 AM 37.4°F 35.6°F 93% 29.93 in 10.0 miles Calm Calm - N/A   Clear
2:55 AM 35.6°F 35.6°F 100% 29.95 in 10.0 miles Calm Calm - N/A   Clear
3:15 AM 35.6°F 35.6°F 100% 29.93 in 10.0 miles Calm Calm - N/A   Clear
3:35 AM 35.6°F 35.6°F 100% 29.93 in 10.0 miles Calm Calm - N/A   Clear
3:55 AM 35.6°F 35.6°F 100% 29.94 in 10.0 miles Calm Calm - N/A   Clear
4:15 AM 35.6°F 35.6°F 100% 29.94 in 10.0 miles Calm Calm - N/A   Clear
4:35 AM 35.6°F 35.6°F 100% 29.94 in 10.0 miles Calm Calm - N/A   Clear
4:55 AM 37.4°F 35.6°F 93% 29.93 in 10.0 miles Calm Calm - N/A   Clear
5:15 AM 39.2°F 32.0°F 75% 29.89 in 10.0 miles Calm Calm - N/A   Clear
5:35 AM 37.4°F 33.8°F 87% 29.88 in 10.0 miles Calm Calm - N/A   Clear
5:55 AM 39.2°F 33.8°F 81% 29.91 in 10.0 miles Calm Calm - N/A   Clear
6:15 AM 39.2°F 33.8°F 81% 29.90 in 10.0 miles Calm Calm - N/A   Clear
6:35 AM 37.4°F 35.6°F 93% 29.90 in 10.0 miles Calm Calm - N/A   Clear
6:55 AM 37.4°F 35.6°F 93% 29.88 in 10.0 miles Calm Calm - N/A   Clear
7:15 AM 37.4°F 35.6°F 93% 29.89 in 10.0 miles Calm Calm - N/A   Clear
7:35 AM 37.4°F 35.6°F 93% 29.90 in 10.0 miles Calm Calm - N/A   Clear
7:55 AM 37.4°F 35.6°F 93% 29.87 in 10.0 miles Calm Calm - N/A   Clear
8:15 AM 35.6°F 35.6°F 100% 29.86 in 10.0 miles Calm Calm - N/A   Clear
8:35 AM 37.4°F 35.6°F 93% 29.86 in 10.0 miles Calm Calm - N/A   Clear
8:55 AM 37.4°F 35.6°F 93% 29.88 in 10.0 miles Calm Calm - N/A   Clear
9:15 AM 37.4°F 35.6°F 93% 29.88 in 10.0 miles Calm Calm - N/A   Clear
9:35 AM 39.2°F 35.6°F 87% 29.89 in 10.0 miles Calm Calm - N/A   Clear
9:55 AM 39.2°F 37.4°F 93% 29.88 in 10.0 miles Calm Calm - N/A   Clear
10:15 AM 39.2°F 37.4°F 93% 29.90 in 10.0 miles Calm Calm - N/A   Clear
10:35 AM 39.2°F 37.4°F 93% 29.90 in 10.0 miles Calm Calm - N/A   Clear
10:55 AM 41.0°F 37.4°F 87% 29.89 in 9.0 miles Calm Calm - N/A Rain Light Rain
11:15 AM 39.2°F 37.4°F 93% 29.88 in 8.0 miles Calm Calm - N/A Rain Light Rain
11:35 AM 39.2°F 37.4°F 93% 29.87 in 10.0 miles Calm Calm - N/A Rain Light Rain
11:55 AM 39.2°F 37.4°F 93% 29.87 in 10.0 miles Calm Calm - N/A   Clear
12:15 PM 39.2°F 39.2°F 100% 29.87 in 10.0 miles Calm Calm - N/A   Clear
12:35 PM 41.0°F 37.4°F 87% 29.86 in 10.0 miles Calm Calm - N/A   Partly Cloudy
12:55 PM 41.0°F 37.4°F 87% 29.86 in 9.0 miles Calm Calm - N/A   Mostly Cloudy
1:15 PM 41.0°F 39.2°F 93% 29.86 in 7.0 miles Calm Calm - N/A Rain Light Rain
1:35 PM 41.0°F 39.2°F 93% 29.86 in 4.0 miles Calm Calm - N/A Rain Light Rain
1:55 PM 41.0°F 41.0°F 100% 29.85 in 4.0 miles Calm Calm - N/A Rain Light Rain
2:15 PM 41.0°F 41.0°F 100% 29.86 in 5.0 miles Calm Calm - N/A Rain Light Rain
2:35 PM 41.0°F 41.0°F 100% 29.87 in 4.0 miles Calm Calm - 0.02 in Rain Light Rain
2:55 PM 41.0°F 41.0°F 100% 29.88 in 5.0 miles Calm Calm - 0.03 in Rain Light Rain
3:15 PM 41.0°F 41.0°F 100% 29.88 in 4.0 miles Calm Calm - 0.01 in Rain Light Rain
3:35 PM 41.0°F 41.0°F 100% 29.90 in 5.0 miles Calm Calm - 0.02 in Rain Light Rain
3:55 PM 41.0°F 41.0°F 100% 29.91 in 5.0 miles Calm Calm - 0.03 in Rain Light Rain
4:15 PM 41.0°F 41.0°F 100% 29.92 in 7.0 miles Calm Calm - N/A Rain Light Rain
4:35 PM 41.0°F 41.0°F 100% 29.94 in 5.0 miles SW 9.2 mph - 0.01 in Rain Light Rain
4:55 PM 41.0°F 41.0°F 100% 29.94 in 9.0 miles SW 8.1 mph - 0.02 in Rain Light Rain
5:15 PM 41.0°F 41.0°F 100% 29.95 in 10.0 miles SSW 8.1 mph - N/A Rain Light Rain
5:35 PM 41.0°F 41.0°F 100% 29.96 in 10.0 miles SW 6.9 mph - N/A Rain Light Rain
5:55 PM 41.0°F 39.2°F 93% 29.96 in 10.0 miles SSW 9.2 mph - N/A   Mostly Cloudy
6:15 PM 41.0°F 39.2°F 93% 29.97 in 10.0 miles SSW 5.8 mph - N/A   Mostly Cloudy
6:35 PM 41.0°F 39.2°F 93% 29.97 in 10.0 miles SSW 5.8 mph - N/A   Mostly Cloudy
6:55 PM 41.0°F 39.2°F 93% 29.98 in 10.0 miles SSW 5.8 mph - N/A   Scattered Clouds
7:15 PM 41.0°F 39.2°F 93% 30.00 in 10.0 miles SW 4.6 mph - N/A   Scattered Clouds
7:35 PM 41.0°F 39.2°F 93% 30.01 in 10.0 miles SW 5.8 mph - N/A   Partly Cloudy
7:55 PM 41.0°F 39.2°F 93% 30.03 in 10.0 miles Calm Calm - N/A   Partly Cloudy
8:15 PM 41.0°F 39.2°F 93% 30.04 in 10.0 miles SW 3.5 mph - N/A   Mostly Cloudy
8:35 PM 41.0°F 39.2°F 93% 30.05 in 10.0 miles Calm Calm - N/A   Overcast
8:55 PM 41.0°F 39.2°F 93% 30.06 in 10.0 miles Calm Calm - N/A   Overcast
9:15 PM 41.0°F 39.2°F 93% 30.07 in 10.0 miles SW 3.5 mph - N/A   Overcast
9:35 PM 41.0°F 39.2°F 93% 30.09 in 10.0 miles SSW 4.6 mph - N/A   Overcast
9:55 PM 41.0°F 39.2°F 93% 30.10 in 10.0 miles SW 5.8 mph - N/A   Overcast
10:15 PM 41.0°F 39.2°F 93% 30.11 in 10.0 miles SW 5.8 mph - N/A   Mostly Cloudy
10:35 PM 41.0°F 39.2°F 93% 30.12 in 10.0 miles SW 5.8 mph - N/A   Scattered Clouds
10:55 PM 41.0°F 39.2°F 93% 30.13 in 10.0 miles SSW 4.6 mph - N/A   Overcast
11:15 PM 41.0°F 39.2°F 93% 30.14 in 10.0 miles Calm Calm - N/A   Overcast
11:35 PM 41.0°F 39.2°F 93% 30.15 in 10.0 miles SSW 3.5 mph - N/A   Overcast
11:55 PM 41.0°F 39.2°F 93% 30.16 in 10.0 miles Calm Calm - N/A   Overcast
Moon Phase
Jan. 23 Jan. 26 Feb. 03 Feb. 10 Feb. 17
Sunrise:07:44 AM (PST) Moon Rise:02:10 PM (PST)
Sunset:04:58 PM (PST) Moon Set:05:03 AM (PST)

Copyright © 2014 The Weather Underground, Inc.